This is the latest recevied weather packets stored in our database for station/object EA7JCM-13. If no packets are shown the sender has not sent any weather packets the latest 10 day(s).
| Time | Temp. | Humidity | Pressure | Rain* | Wind** | Luminosity | Snow |
|---|---|---|---|---|---|---|---|
| 1777405803 | 15.56° C | 86% | 1007 hPa | 0 mm | - | - | - |
| 1777405503 | 15.56° C | 83% | 1007 hPa | 0 mm | - | - | - |
| 1777405203 | 16.11° C | 80% | 1006.9 hPa | 0 mm | - | - | - |
| 1777404902 | 16.11° C | 79% | 1007 hPa | 0 mm | - | - | - |
| 1777404603 | 16.11° C | 80% | 1006.9 hPa | 0 mm | - | - | - |
| 1777404303 | 16.11° C | 81% | 1006.8 hPa | 0 mm | - | - | - |
| 1777404003 | 16.11° C | 81% | 1006.8 hPa | 0 mm | - | - | - |
| 1777403703 | 16.11° C | 80% | 1006.8 hPa | 0 mm | - | - | - |
| 1777403402 | 16.67° C | 79% | 1006.7 hPa | 0 mm | - | - | - |
| 1777403103 | 16.67° C | 78% | 1006.7 hPa | 0 mm | - | - | - |
| 1777402803 | 17.22° C | 78% | 1006.8 hPa | 0 mm | - | - | - |
| 1777402503 | 16.67° C | 79% | 1006.7 hPa | 0 mm | - | - | - |
| 1777402204 | 16.67° C | 79% | 1006.7 hPa | 0 mm | - | - | - |
| 1777401902 | 16.67° C | 80% | 1006.7 hPa | 0 mm | - | - | - |
| 1777401603 | 16.67° C | 80% | 1006.5 hPa | 0 mm | - | - | - |
| 1777401303 | 16.67° C | 78% | 1006.5 hPa | 0 mm | - | - | - |
| 1777401003 | 17.22° C | 77% | 1006.4 hPa | 0 mm | - | - | - |
| 1777400703 | 16.67° C | 76% | 1006.4 hPa | 0 mm | - | - | - |
| 1777400403 | 16.67° C | 76% | 1006.4 hPa | 0 mm | - | - | - |
| 1777400103 | 16.67° C | 77% | 1006.5 hPa | 0 mm | - | - | - |
| 1777399802 | 16.67° C | 78% | 1006.3 hPa | 0 mm | - | - | - |
| 1777399503 | 16.67° C | 79% | 1006.3 hPa | 0 mm | - | - | - |
| 1777399203 | 16.11° C | 83% | 1006.3 hPa | 0.25 mm | - | - | - |
| 1777398903 | 16.11° C | 84% | 1006.2 hPa | 0.25 mm | - | - | - |
| 1777398603 | 16.11° C | 83% | 1006.5 hPa | 1.02 mm | - | - | - |
* Rain latest hour (hover to see other rain measurements)
** Current wind speed in m/s (hover to see current wind gust speed)